Tracking 29059 objects as of 17-Jun-2024
HD Live streaming from Space Station
objects crossing your sky now

OBJECT AC

Track OBJECT AC now!
10-day predictions


NORAD ID: 57030
Int'l Code: 2023-085AC
Perigee: 510.2 km
Apogee: 525.2 km
Inclination: 97.5 °
Period: 94.8 minutes
Semi major axis: 6888 km
RCS: Unknown
Launch date: June 15, 2023
Source: People's Republic of China (PRC)
Launch site: Taiyaun Space Center, China (TSC)
Your satellite tracking list
Your tracking list is empty




NASA's NSSDC Master Catalog

Two Line Element Set (TLE):
1 57030U 23085AC  24168.88969388  .00016786  00000-0  81610-3 0  9990
2 57030  97.4635 272.6550 0010873 104.7559 255.4880 15.18439706 55587
Source of the keplerian elements: AFSPC